Regional Weather Roundup
Issued by NWS Charleston, SC

Current Version | Previous Version | Graphics & Text | Print | Product List | Glossary On
Versions: 1 2 3 4 5 6 7 8 9 10 11 12 13 14 15 16 17 18 19 20 21 22 23 24 25 26 27 28 29 30 31 32 33 34 35 36 37 38 39 40 41 42 43 44 45 46 47 48 49 50
943
ASUS42 KCHS 231427
RWRCHS

REGIONAL WEATHER ROUNDUP
NATIONAL WEATHER SERVICE CHARLESTON SC
1000 AM EDT TUE MAY 23 2017

NOTE: "FAIR" INDICATES FEW OR NO CLOUDS BELOW 12,000 FEET WITH NO
SIGNIFICANT WEATHER AND/OR OBSTRUCTIONS TO VISIBILITY.

NOT ALL STATIONS ARE QUALITY CONTROLLED. USE DATA WITH CAUTION...
ESPECIALLY DEWPOINT OBSERVATIONS.

SCZ027-030-031-034>040-042>050-231500-
...SOUTHEAST SOUTH CAROLINA...

CITY           SKY/WX    TMP DP  RH WIND       PRES   REMARKS
N CHARLESTON   LGT RAIN  74  72  93 SW7       29.85F
WATERFRONT PRK   N/A     74  73  96 SW6       29.84F
JOHNS ISLAND   DRIZZLE   75  73  94 CALM      29.85F
PINOPOLIS        N/A     72  72 100 SW6       29.78S
MONCKS CORNER  CLOUDY    72  70  94 SW6       29.84F
SUMMERVILLE    LGT RAIN  72  70  94 S3        29.85F
BEAUFORT MCAS  CLOUDY    74  73  97 SW6       29.86F
BEAUFORT ARPT  CLOUDY    73  72  94 SW5       29.86S
HILTON HEAD IS PTSUNNY   77  73  88 SW9       29.88F
WALTERBORO     CLOUDY    72  72 100 SW6       29.86F
ALLENDALE      FAIR      73  72  94 CALM      29.84S

...SOUTHERN MIDLANDS AND PEE DEE...

CITY           SKY/WX    TMP DP  RH WIND       PRES   REMARKS
GEORGETOWN     CLOUDY    72  72 100 W7        29.86F
KINGSTREE      DRIZZLE   72  70  94 SW5       29.84F
ORANGEBURG     CLOUDY    72  70  93 SW7       29.84F
BARNWELL       DRIZZLE   73  73 100 S8        29.85R
AIKEN          DRIZZLE   70  68  94 SW9       29.88S
MANNING        CLOUDY    72  72 100 SW14      29.84F
COLUMBIA       CLOUDY    74  70  87 S8        29.81F
SUMTER         LGT RAIN  72  70  94 S6        29.81F
FLORENCE       CLOUDY    71  70  96 SW5       29.84F
MYRTLE BEACH   CLOUDY    75  72  88 W7        29.86S
N MYRTLE BEACH CLOUDY    76  72  87 SW9       29.84S

$$

GAZ063-065-086>088-099>101-113>116-118-119-134>141-150-231500-
...SOUTHEAST GEORGIA...

CITY           SKY/WX    TMP DP  RH WIND       PRES   REMARKS
SAVANNAH ARPT  PTSUNNY   76  71  85 SW8       29.87F
HUNTER AAF     CLOUDY    77  76  96 SW12      29.85S
FORT STEWART   CLOUDY    76  71  84 SW6       29.85F
STATESBORO     LGT RAIN  74  74 100 SW6       29.86S
SYLVANIA       CLOUDY    74  73  99 SW6       29.86S
CLAXTON        LGT RAIN N/A N/A N/A S5        29.87S

...CSRA...CENTRAL AND FAR SOUTHEAST GEORGIA...

CITY           SKY/WX    TMP DP  RH WIND       PRES   REMARKS
THOMSON        LGT RAIN  70  68  96 W5        29.89F
AUGUSTA-BUSH   RAIN      74  71  91 W5        29.84S FOG
AUGUSTA-DANIEL LGT RAIN  72  68  87 VRB3      29.86R
SWAINSBORO     CLOUDY    72  72 100 CALM      29.87S
VIDALIA        CLOUDY    73  73 100 SW7       29.86F
EASTMAN        LGT RAIN  72  72 100 NW6       29.89R
HAZLEHURST     PTSUNNY   74  74 100 SW6       29.86S
ALMA           CLOUDY    75  72  90 S6        29.86F
WAYCROSS       RAIN      77  77 100 SW8       29.88S
JESUP          CLOUDY    79  70  73 SW9       29.88S
BAXLEY         LGT RAIN  75  75 100 SW6       29.87S
BRUNSWICK      PTSUNNY   77  73  88 SW10      29.89F
SAINT SIMONS   PTSUNNY   78  70  76 SW12G24   29.89S

$$

SCZ027-028-034-036>038-045-046-048>050-GAZ119-141-231500-
...LAKE AND SUPPLEMENTAL COASTAL OBSERVATIONS...

STATION/POSITION TIME  TEMP    WIND        PRES    WAVE   SWELL
                       AIR SEA DIR/SP/G            HT/PER HT/PER/DIR
                 (UTC) (F)     (DEG/KT/KT) (MB)    (FT/S) (FT/S/D)
WINYAH BAY       1330   74     260/ 10     1011.0S
LAKE MURRAY      1350   72     160/  7/ 10 1009.5F
ACE BASIN NERRS  1330   73        CALM     1012.0S
FORT PULASKI     1400   78     240/  9/ 13 1011.8
SAPELO ISLAND    1400   79     220/ 14     1012.0

$$

ANZ835-935-AMZ111-154-330-350-352-354-370-450-454-472-231500-
...C-MAN AND BUOY OBSERVATIONS...

STATION/POSITION TIME  TEMP    WIND        PRES    WAVE   SWELL
                       AIR SEA DIR/SP/G            HT/PER HT/PER/DIR
                 (UTC) (F)     (DEG/KT/KT) (MB)    (FT/S) (FT/S/D)
BUOY 41004       1410   77 77  230/ 16/ 19 1011.3
BUOY 41008       1350   77 78  210/ 19/ 23 1011.6F   4/ 6   2/ 70/ 9
FOLLY BEACH CMAN 1400   75     230/  8/  9 1011.6F
CAPERS NEARSHORE 1408   78 75  250/ 16/ 19 1010.6F
FRIPP NEARSHORE  1408   77 78  240/ 12/ 17 1010.9F


STATION/POSITION TIME  TEMP    WIND        PRES    WAVE   SWELL
                       AIR SEA DIR/SP/G            HT/PER HT/PER/DIR
                 (UTC) (F)     (DEG/KT/KT) (MB)    (FT/S) (FT/S/D)
5E ST. MARYS GA  1400      79                N/A     3/ 5
FRYING PAN BUOY  1410   76 77  190/ 19/ 25 1010.9
BUOY 41025       1350   74 77  240/ 16/ 17 1012.0F   4/ 5   2/140/ 8
CAPE LOOKOUT NC  1400   71     200/ 11/ 13 1011.3F
BUOY 41002       1350   76 76  190/ 19/ 21 1015.5R   4/ 5   2/ 70/ 8
BUOY 41010       1410   79 79  200/ 14/ 17 1015.3
ST AUGUSTINE FL  1400   80 78  230/  8/ 12 1014.0F


$$




USA.gov is the U.S. government's official web portal to all federal, state and local government web resources and services.